Location: Cahas Mountain Overlook
(37.0833°N, 80.1000°W)
Time: 07:14:12
(UTC-05:00)

Vanguard 2 Rocket - Pass Details

Date: 17 February 2026
Orbit: 553 x 3287 km, 32.9° (Epoch: 5 March)

Event Time Altitude Azimuth Distance (km) Brightness Sun altitude
Rises 18:18:43 0° 280° (W) 5,769 12.5 -4.0°
Reaches altitude 10° 18:23:32 10° 273° (W) 4,279 12.0 -4.9°
Maximum altitude 18:32:45 35° 213° (SSW) 1,911 9.0 -6.7°
Drops below altitude 10° 18:38:27 10° 149° (SSE) 2,607 9.0 -7.8°
Sets 18:40:41 0° 139° (SE) 3,311 9.5 -8.3°
